SCP
0 0 0 0 0 0 0 0 0 0 0 0 0 0 0 0 0 1 1 0 0 0 0 0 0 0 1 0 0 0 0 0 0 0 0 0 0 0 0 0 0 0 0
0 0 0 0 0 0 0 0 0 0 0 0 0 0 0 0 0 0 1 1 0 0 0 0 0 0 0 1 1 0 0 0 0 0 0 0 0 0 0 0 0 0 0
0 0 0 0 0 0 0 0 0 0 0 0 0 0 0 0 0 0 0 1 0 0 0 0 1 1 0 1 1 1 0 0 0 0 0 0 0 0 0 0 0 0 0
0 0 0 0 0 0 0 0 0 0 0 0 0 0 0 0 0 0 0 0 1 0 0 0 0 0 1 1 1 1 1 1 1 0 0 0 0 0 0 0 0 0 0
0 0 0 0 0 0 0 0 0 0 0 0 0 0 0 0 0 0 0 0 0 0 0 0 0 0 0 1 0 0 0 1 1 0 0 0 0 0 0 0 0 0 0
0 0 0 0 0 0 0 0 0 0 0 0 0 0 0 0 0 0 0 0 0 0 0 0 0 0 0 0 0 0 0 0 0 0 1 1 0 0 0 0 0 0 0
0 0 0 0 0 0 0 0 0 0 0 0 0 0 0 0 0 0 0 0 0 0 0 0 0 0 0 0 0 0 0 0 0 0 0 0 0 0 0 0 0 0 0
0 0 0 0 0 0 0 0 0 0 0 0 0 0 0 0 0 0 0 0 0 0 0 0 0 0 0 0 0 0 0 0 0 0 0 0 0 0 0 0 0 0 0
0 0 0 0 0 0 0 0 0 0 0 0 0 0 0 0 0 0 0 0 0 0 0 0 0 0 0 0 0 0 0 0 0 0 0 0 0 0 0 0 0 0 0
0 0 0 0 0 0 0 0 0 0 0 0 0 0 0 0 0 0 0 0 0 0 0 0 0 0 0 0 0 0 0 0 0 0 0 0 0 0 0 0 0 0 0
0 0 0 0 0 0 0 0 0 0 0 0 0 0 0 0 0 0 0 0 0 0 0 0 0 0 0 0 0 0 0 0 0 0 0 0 0 0 0 0 0 0 0
0 0 0 0 0 0 0 0 0 0 0 0 0 0 0 0 0 0 0 0 0 0 0 0 0 0 0 0 0 0 0 0 0 0 0 0 0 0 0 0 0 0 0
0 0 0 0 0 0 0 0 0 0 0 0 0 0 0 0 0 0 0 0 0 0 0 0 0 0 0 0 0 0 0 0 0 0 0 0 0 0 0 0 0 0 0
0 0 0 0 0 0 0 0 0 0 0 0 0 0 0 0 0 0 0 0 0 0 0 -0 0 0 0 0 0 0 0 0 0 0 0 0 0 0 0 0 0 0 0
0 0 0 0 0 0 0 0 0 0 0 0 0 0 0 0 0 0 0 0 0 0 -0 -0 0 0 0 0 0 0 0 0 0 0 0 0 0 0 0 0 0 0 0
0 0 0 0 0 0 0 0 0 0 0 0 0 0 -0 0 0 0 0 0 0 0 0 -0 -0 0 0 0 0 0 0 0 0 0 0 0 0 0 0 0 0 0 0
0 0 0 0 0 0 0 0 0 0 0 0 0 0 -0 -0 0 0 0 0 0 0 -0 -0 0 0 0 0 0 0 0 0 0 0 0 0 0 0 0 0 0 0 0
0 0 0 0 0 0 0 0 0 0 0 0 0 -0 -0 -0 0 -0 0 0 0 0 0 0 0 0 0 0 0 0 0 0 0 0 0 0 0 0 0 0 0 0 0
0 0 0 0 0 0 0 0 0 0 0 0 0 0 0 0 0 0 0 0 0 0 -0 0 0 -0 0 0 0 0 0 0 0 0 0 0 0 0 0 0 0 0 0
0 0 0 0 0 0 0 0 -0 -0 -0 0 0 0 0 0 0 0 0 0 0 0 0 0 0 -0 0 0 0 0 0 0 0 0 0 0 0 0 0 0 0 0 0
0 0 0 0 0 0 0 0 0 -0 -0 -0 0 0 0 0 0 0 0 0 0 0 0 0 0 0 -0 0 0 0 0 0 0 0 0 0 0 0 0 0 0 0 0
0 0 0 0 0 0 0 0 0 0 -0 -0 -0 -0 0 0 0 0 0 0 0 0 0 0 0 0 0 0 0 0 0 0 0 0 0 0 0 0 0 0 0 0 0
0 0 0 0 0 0 0 0 0 0 0 0 -0 -0 -0 0 0 0 0 0 0 0 0 0 0 -0 -0 0 0 0 0 0 0 0 0 0 0 0 0 0 0 0 0
0 0 0 0 0 0 0 0 0 0 0 0 -0 -0 -0 -0 -0 0 0 0 0 0 0 0 0 0 0 0 0 0 0 0 0 0 0 0 0 0 0 0 0 0 0
0 0 0 0 0 0 0 0 0 0 0 0 -0 -0 -0 -0 0 -0 0 0 0 0 0 0 0 0 0 0 0 0 0 0 0 0 0 0 0 0 0 0 0 0 0
0 0 0 0 0 0 0 0 0 0 0 0 0 0 -0 -0 0 -0 0 0 0 0 0 0 0 0 0 0 0 0 0 0 0 0 0 0 0 0 0 0 0 0 0
Wind_Speed_500mb
57 57 57 57 55 53 53 54 54 57 62 66 68 68 70 68 67 67 76 82 87 90 86 80 75 70 69 67 64 66 68 72 75 78 77 76 72 68 68 62 58 54 52
53 54 55 54 54 53 52 54 56 56 58 63 69 72 71 74 72 76 70 78 87 86 86 88 86 77 76 74 72 71 71 75 80 79 85 83 81 75 76 69 64 60 58
46 48 51 50 49 49 54 54 53 54 57 57 62 67 73 77 74 76 80 81 85 92 92 89 87 84 79 78 74 73 74 75 78 81 83 87 87 88 82 78 72 65 62
43 41 42 43 44 49 49 49 48 50 53 55 58 61 65 70 78 76 75 69 83 91 95 94 88 87 85 86 80 76 77 76 78 82 87 88 91 95 91 90 78 68 69
39 39 40 40 41 44 45 47 48 47 48 51 53 54 58 67 75 82 81 84 64 84 87 98 89 97 95 94 90 76 77 78 77 79 87 93 97 101 102 98 89 77 70
42 39 37 37 37 37 40 46 49 50 50 53 50 54 61 65 66 79 84 81 88 76 77 97 82 84 99 106 104 79 75 78 77 79 77 90 102 104 113 106 83 73 72
39 40 36 37 37 35 34 35 43 46 53 47 45 57 63 74 76 77 79 86 80 84 80 76 95 81 86 92 80 92 79 101 74 77 73 83 125 111 118 112 85 79 77
40 40 40 43 44 44 45 41 37 43 48 37 41 44 41 43 56 59 68 76 80 79 85 76 87 87 82 82 91 96 98 102 87 88 87 81 93 109 105 91 87 80 81
41 41 42 45 45 41 43 41 39 42 47 44 41 37 23 28 37 46 48 59 74 80 82 83 91 82 86 77 98 89 96 85 75 86 87 83 80 102 105 88 86 82 75
38 41 44 42 42 40 38 42 37 41 43 53 48 42 58 62 33 23 29 44 61 69 71 72 77 80 81 81 92 74 85 82 82 89 88 92 92 123 116 96 82 90 81
35 38 41 42 45 48 53 51 52 48 50 54 55 55 56 49 60 60 56 58 38 42 57 68 79 75 87 90 85 90 91 83 83 92 95 79 81 87 82 85 82 85 83
30 31 34 37 42 44 48 53 54 53 54 58 59 59 58 55 44 44 53 63 73 75 59 58 69 73 81 83 83 86 87 88 89 83 74 90 106 88 93 89 87 84 80
29 27 31 35 37 39 39 44 52 53 53 58 57 61 63 68 67 54 53 56 62 59 49 52 63 68 73 81 77 85 87 81 78 76 73 66 73 92 85 93 97 83 80
31 30 33 33 33 37 39 44 50 54 57 57 57 59 61 64 63 66 65 45 43 46 53 52 61 60 59 64 65 72 70 70 66 68 72 77 61 50 75 62 59 88 72
31 29 29 31 33 37 40 44 50 55 59 60 63 61 58 62 58 59 60 63 54 35 26 36 47 54 53 53 53 51 51 55 55 61 69 63 60 44 34 28 22 26 36
28 26 25 29 33 37 40 43 46 48 55 62 67 65 63 50 55 52 54 56 52 47 17 19 29 51 48 54 48 47 52 56 60 61 68 48 34 39 37 36 32 37 43
29 29 28 30 36 40 43 46 45 44 48 50 52 58 52 52 52 43 52 54 47 24 26 24 25 27 39 51 54 52 52 58 72 76 65 52 47 48 47 45 43 43 54
28 31 34 37 40 42 41 42 40 41 41 38 38 41 46 51 42 47 40 43 43 32 35 35 31 31 28 33 60 54 53 53 48 59 65 65 55 55 58 61 56 51 59
25 28 31 38 38 36 36 34 35 35 29 26 29 33 37 36 35 37 51 53 46 46 50 56 41 35 41 41 61 64 55 52 49 46 45 44 46 48 46 42 42 44 40
22 26 25 27 29 32 34 33 29 27 22 20 22 26 28 28 36 35 36 37 37 43 51 51 52 41 31 35 54 61 59 57 53 49 48 45 43 43 43 45 41 41 43
17 17 18 19 21 22 25 26 23 20 18 16 16 20 27 28 32 37 38 39 38 41 47 49 45 39 37 35 42 60 65 56 49 48 45 44 41 40 43 47 48 43 40
16 18 22 24 24 23 27 26 21 17 13 13 14 17 21 22 29 32 41 45 40 40 44 45 48 39 29 37 43 53 62 55 46 49 51 48 42 41 41 40 37 38 37
16 17 18 20 22 24 28 29 30 26 17 12 7 6 5 4 5 17 32 45 47 45 41 37 39 39 45 38 34 38 46 42 41 30 27 40 36 35 36 35 32 32 35
15 16 18 18 20 21 21 21 21 22 25 29 27 23 23 27 24 17 20 9 4 17 24 20 24 25 27 24 20 15 23 33 29 22 22 25 27 27 28 30 35 39 39
11 12 14 15 16 16 17 19 19 18 18 17 17 14 12 14 15 17 17 14 13 10 8 7 2 3 5 5 8 9 19 19 15 10 14 15 20 25 29 32 36 38 41
16 14 14 14 14 14 13 13 14 13 14 15 15 15 15 12 10 9 8 8 10 8 6 9 8 7 8 8 7 10 11 11 9 11 19 26 27 21 17 35 38 40 42
Wind_Direction_500mb
296 292 289 289 288 285 282 278 272 266 263 259 256 257 256 254 247 257 253 253 252 247 242 240 241 247 249 249 247 242 240 238 235 235 236 238 241 240 238 239 237 234 229
295 293 290 288 286 285 282 278 277 274 269 264 261 257 257 256 254 246 257 255 255 255 245 240 242 242 248 248 247 244 244 241 240 240 239 239 240 242 241 239 239 234 232
289 286 286 287 287 284 284 283 280 278 277 274 267 263 259 258 257 253 251 259 255 254 252 242 240 246 246 249 247 245 244 242 241 243 243 241 241 240 241 240 238 234 232
292 285 280 278 280 282 286 286 285 281 278 275 272 268 262 259 258 252 251 252 256 253 251 250 242 244 247 246 247 245 245 245 245 246 246 245 242 241 240 239 236 232 230
294 289 287 284 280 279 280 278 276 277 280 278 275 274 269 264 263 255 252 250 257 247 255 254 246 244 244 243 241 239 244 247 249 250 249 248 245 243 240 238 234 230 229
295 292 288 288 285 281 279 283 284 280 276 273 277 270 262 259 260 259 254 255 246 252 256 249 256 248 248 244 238 228 236 245 249 252 254 251 249 246 241 234 229 228 227
290 292 291 286 291 286 282 280 283 286 283 283 283 280 279 273 267 265 259 255 256 250 253 261 249 252 253 255 250 245 243 240 243 252 254 259 244 241 237 234 227 223 229
290 288 286 282 281 280 276 279 280 282 285 283 275 282 283 280 271 273 266 258 256 256 253 254 250 256 254 250 246 243 244 238 239 243 246 250 252 218 228 237 223 229 231
293 290 285 285 285 280 278 274 281 285 285 284 272 255 280 254 273 265 268 259 255 256 255 250 250 252 257 256 248 243 244 240 247 248 249 249 257 253 240 238 233 233 234
292 290 287 286 283 276 273 272 279 281 277 275 270 265 255 258 283 301 287 269 253 250 244 241 244 249 252 249 245 246 239 242 251 250 248 257 268 249 235 229 230 239 233
290 290 289 284 276 274 269 272 272 272 273 271 268 268 261 265 258 260 270 277 284 266 255 241 238 244 246 245 246 244 238 248 253 251 255 253 254 246 235 234 234 228 223
295 298 297 291 285 281 278 272 269 267 273 271 265 262 263 268 270 266 260 264 272 273 276 265 253 249 244 240 240 247 244 251 255 258 250 253 248 254 240 240 229 225 223
309 313 301 293 290 286 281 273 273 271 274 274 271 269 261 258 261 266 271 261 263 270 268 272 257 244 241 244 247 249 248 252 253 245 258 249 252 242 246 241 232 227 227
314 312 307 304 302 298 292 285 280 274 272 271 274 274 271 261 260 260 264 268 258 272 266 264 274 254 248 245 243 247 249 251 246 248 251 245 255 233 226 228 219 220 245
309 309 307 302 301 294 291 287 286 283 278 274 273 275 275 258 260 257 253 259 260 265 285 272 253 266 241 233 224 227 227 221 237 239 244 237 215 219 222 231 223 236 245
301 301 298 297 300 297 295 290 287 283 277 272 273 269 273 270 250 255 248 248 249 242 255 333 304 252 244 229 221 212 218 226 235 223 208 201 228 223 235 237 248 243 225
304 300 299 299 299 297 294 290 290 289 284 277 271 268 271 270 261 250 238 234 222 208 309 273 296 304 270 239 223 211 212 210 204 203 202 225 229 231 228 224 219 235 231
307 310 308 305 299 296 295 295 296 295 289 279 274 270 264 266 257 256 257 237 227 275 272 261 244 267 261 289 236 217 211 207 205 202 202 211 215 224 226 216 220 231 229
307 307 310 305 306 302 299 297 293 294 288 286 283 275 267 271 263 245 248 252 253 254 257 245 240 258 255 247 231 220 218 216 215 214 216 214 211 215 220 221 216 214 223
325 316 314 312 318 318 316 311 296 292 290 286 281 280 278 273 263 265 254 254 252 252 244 241 249 247 243 284 234 221 221 219 218 220 218 218 219 221 224 227 228 231 238
351 336 344 339 337 339 337 330 318 306 288 278 276 275 275 273 265 262 261 255 255 250 248 243 239 237 239 237 251 228 231 231 230 228 229 226 228 233 236 236 235 233 232
29 26 22 21 21 18 14 12 11 1 344 319 295 279 268 261 260 256 253 257 252 251 248 242 244 246 259 229 247 233 231 226 225 231 233 234 231 231 233 236 232 227 224
18 9 10 18 24 29 33 33 35 35 35 43 37 40 21 11 273 260 249 253 253 251 245 246 245 253 259 275 252 231 229 229 229 235 241 235 234 230 230 227 221 226 226
350 352 356 3 5 7 15 25 29 33 31 37 45 58 60 54 44 61 52 38 275 238 230 241 245 241 246 254 270 244 223 217 217 228 229 218 225 223 221 222 228 233 236
324 333 340 344 349 353 357 5 16 25 30 32 38 49 56 63 50 46 52 50 48 44 63 106 105 137 180 185 185 189 199 185 188 205 209 219 227 231 234 237 238 240 243
295 301 310 320 326 333 343 351 358 9 14 19 21 21 23 36 61 69 58 38 26 28 40 60 107 104 108 125 153 181 194 195 216 234 234 236 243 236 240 245 242 242 244
Wind_Speed_850mb
57 57 57 57 55 53 53 54 54 57 62 66 68 68 70 68 67 67 76 82 87 90 86 80 75 70 69 67 64 66 68 72 75 78 77 76 72 68 68 62 58 54 52
53 54 55 54 54 53 52 54 56 56 58 63 69 72 71 74 72 76 70 78 87 86 86 88 86 77 76 74 72 71 71 75 80 79 85 83 81 75 76 69 64 60 58
46 48 51 50 49 49 54 54 53 54 57 57 62 67 73 77 74 76 80 81 85 92 92 89 87 84 79 78 74 73 74 75 78 81 83 87 87 88 82 78 72 65 62
43 41 42 43 44 49 49 49 48 50 53 55 58 61 65 70 78 76 75 69 83 91 95 94 88 87 85 86 80 76 77 76 78 82 87 88 91 95 91 90 78 68 69
39 39 40 40 41 44 45 47 48 47 48 51 53 54 58 67 75 82 81 84 64 84 87 98 89 97 95 94 90 76 77 78 77 79 87 93 97 101 102 98 89 77 70
42 39 37 37 37 37 40 46 49 50 50 53 50 54 61 65 66 79 84 81 88 76 77 97 82 84 99 106 104 79 75 78 77 79 77 90 102 104 113 106 83 73 72
39 40 36 37 37 35 34 35 43 46 53 47 45 57 63 74 76 77 79 86 80 84 80 76 95 81 86 92 80 92 79 101 74 77 73 83 125 111 118 112 85 79 77
40 40 40 43 44 44 45 41 37 43 48 37 41 44 41 43 56 59 68 76 80 79 85 76 87 87 82 82 91 96 98 102 87 88 87 81 93 109 105 91 87 80 81
41 41 42 45 45 41 43 41 39 42 47 44 41 37 23 28 37 46 48 59 74 80 82 83 91 82 86 77 98 89 96 85 75 86 87 83 80 102 105 88 86 82 75
38 41 44 42 42 40 38 42 37 41 43 53 48 42 58 62 33 23 29 44 61 69 71 72 77 80 81 81 92 74 85 82 82 89 88 92 92 123 116 96 82 90 81
35 38 41 42 45 48 53 51 52 48 50 54 55 55 56 49 60 60 56 58 38 42 57 68 79 75 87 90 85 90 91 83 83 92 95 79 81 87 82 85 82 85 83
30 31 34 37 42 44 48 53 54 53 54 58 59 59 58 55 44 44 53 63 73 75 59 58 69 73 81 83 83 86 87 88 89 83 74 90 106 88 93 89 87 84 80
29 27 31 35 37 39 39 44 52 53 53 58 57 61 63 68 67 54 53 56 62 59 49 52 63 68 73 81 77 85 87 81 78 76 73 66 73 92 85 93 97 83 80
31 30 33 33 33 37 39 44 50 54 57 57 57 59 61 64 63 66 65 45 43 46 53 52 61 60 59 64 65 72 70 70 66 68 72 77 61 50 75 62 59 88 72
31 29 29 31 33 37 40 44 50 55 59 60 63 61 58 62 58 59 60 63 54 35 26 36 47 54 53 53 53 51 51 55 55 61 69 63 60 44 34 28 22 26 36
28 26 25 29 33 37 40 43 46 48 55 62 67 65 63 50 55 52 54 56 52 47 17 19 29 51 48 54 48 47 52 56 60 61 68 48 34 39 37 36 32 37 43
29 29 28 30 36 40 43 46 45 44 48 50 52 58 52 52 52 43 52 54 47 24 26 24 25 27 39 51 54 52 52 58 72 76 65 52 47 48 47 45 43 43 54
28 31 34 37 40 42 41 42 40 41 41 38 38 41 46 51 42 47 40 43 43 32 35 35 31 31 28 33 60 54 53 53 48 59 65 65 55 55 58 61 56 51 59
25 28 31 38 38 36 36 34 35 35 29 26 29 33 37 36 35 37 51 53 46 46 50 56 41 35 41 41 61 64 55 52 49 46 45 44 46 48 46 42 42 44 40
22 26 25 27 29 32 34 33 29 27 22 20 22 26 28 28 36 35 36 37 37 43 51 51 52 41 31 35 54 61 59 57 53 49 48 45 43 43 43 45 41 41 43
17 17 18 19 21 22 25 26 23 20 18 16 16 20 27 28 32 37 38 39 38 41 47 49 45 39 37 35 42 60 65 56 49 48 45 44 41 40 43 47 48 43 40
16 18 22 24 24 23 27 26 21 17 13 13 14 17 21 22 29 32 41 45 40 40 44 45 48 39 29 37 43 53 62 55 46 49 51 48 42 41 41 40 37 38 37
16 17 18 20 22 24 28 29 30 26 17 12 7 6 5 4 5 17 32 45 47 45 41 37 39 39 45 38 34 38 46 42 41 30 27 40 36 35 36 35 32 32 35
15 16 18 18 20 21 21 21 21 22 25 29 27 23 23 27 24 17 20 9 4 17 24 20 24 25 27 24 20 15 23 33 29 22 22 25 27 27 28 30 35 39 39
11 12 14 15 16 16 17 19 19 18 18 17 17 14 12 14 15 17 17 14 13 10 8 7 2 3 5 5 8 9 19 19 15 10 14 15 20 25 29 32 36 38 41
16 14 14 14 14 14 13 13 14 13 14 15 15 15 15 12 10 9 8 8 10 8 6 9 8 7 8 8 7 10 11 11 9 11 19 26 27 21 17 35 38 40 42
Wind_Direction_850mb
296 292 289 289 288 285 282 278 272 266 263 259 256 257 256 254 247 257 253 253 252 247 242 240 241 247 249 249 247 242 240 238 235 235 236 238 241 240 238 239 237 234 229
295 293 290 288 286 285 282 278 277 274 269 264 261 257 257 256 254 246 257 255 255 255 245 240 242 242 248 248 247 244 244 241 240 240 239 239 240 242 241 239 239 234 232
289 286 286 287 287 284 284 283 280 278 277 274 267 263 259 258 257 253 251 259 255 254 252 242 240 246 246 249 247 245 244 242 241 243 243 241 241 240 241 240 238 234 232
292 285 280 278 280 282 286 286 285 281 278 275 272 268 262 259 258 252 251 252 256 253 251 250 242 244 247 246 247 245 245 245 245 246 246 245 242 241 240 239 236 232 230
294 289 287 284 280 279 280 278 276 277 280 278 275 274 269 264 263 255 252 250 257 247 255 254 246 244 244 243 241 239 244 247 249 250 249 248 245 243 240 238 234 230 229
295 292 288 288 285 281 279 283 284 280 276 273 277 270 262 259 260 259 254 255 246 252 256 249 256 248 248 244 238 228 236 245 249 252 254 251 249 246 241 234 229 228 227
290 292 291 286 291 286 282 280 283 286 283 283 283 280 279 273 267 265 259 255 256 250 253 261 249 252 253 255 250 245 243 240 243 252 254 259 244 241 237 234 227 223 229
290 288 286 282 281 280 276 279 280 282 285 283 275 282 283 280 271 273 266 258 256 256 253 254 250 256 254 250 246 243 244 238 239 243 246 250 252 218 228 237 223 229 231
293 290 285 285 285 280 278 274 281 285 285 284 272 255 280 254 273 265 268 259 255 256 255 250 250 252 257 256 248 243 244 240 247 248 249 249 257 253 240 238 233 233 234
292 290 287 286 283 276 273 272 279 281 277 275 270 265 255 258 283 301 287 269 253 250 244 241 244 249 252 249 245 246 239 242 251 250 248 257 268 249 235 229 230 239 233
290 290 289 284 276 274 269 272 272 272 273 271 268 268 261 265 258 260 270 277 284 266 255 241 238 244 246 245 246 244 238 248 253 251 255 253 254 246 235 234 234 228 223
295 298 297 291 285 281 278 272 269 267 273 271 265 262 263 268 270 266 260 264 272 273 276 265 253 249 244 240 240 247 244 251 255 258 250 253 248 254 240 240 229 225 223
309 313 301 293 290 286 281 273 273 271 274 274 271 269 261 258 261 266 271 261 263 270 268 272 257 244 241 244 247 249 248 252 253 245 258 249 252 242 246 241 232 227 227
314 312 307 304 302 298 292 285 280 274 272 271 274 274 271 261 260 260 264 268 258 272 266 264 274 254 248 245 243 247 249 251 246 248 251 245 255 233 226 228 219 220 245
309 309 307 302 301 294 291 287 286 283 278 274 273 275 275 258 260 257 253 259 260 265 285 272 253 266 241 233 224 227 227 221 237 239 244 237 215 219 222 231 223 236 245
301 301 298 297 300 297 295 290 287 283 277 272 273 269 273 270 250 255 248 248 249 242 255 333 304 252 244 229 221 212 218 226 235 223 208 201 228 223 235 237 248 243 225
304 300 299 299 299 297 294 290 290 289 284 277 271 268 271 270 261 250 238 234 222 208 309 273 296 304 270 239 223 211 212 210 204 203 202 225 229 231 228 224 219 235 231
307 310 308 305 299 296 295 295 296 295 289 279 274 270 264 266 257 256 257 237 227 275 272 261 244 267 261 289 236 217 211 207 205 202 202 211 215 224 226 216 220 231 229
307 307 310 305 306 302 299 297 293 294 288 286 283 275 267 271 263 245 248 252 253 254 257 245 240 258 255 247 231 220 218 216 215 214 216 214 211 215 220 221 216 214 223
325 316 314 312 318 318 316 311 296 292 290 286 281 280 278 273 263 265 254 254 252 252 244 241 249 247 243 284 234 221 221 219 218 220 218 218 219 221 224 227 228 231 238
351 336 344 339 337 339 337 330 318 306 288 278 276 275 275 273 265 262 261 255 255 250 248 243 239 237 239 237 251 228 231 231 230 228 229 226 228 233 236 236 235 233 232
29 26 22 21 21 18 14 12 11 1 344 319 295 279 268 261 260 256 253 257 252 251 248 242 244 246 259 229 247 233 231 226 225 231 233 234 231 231 233 236 232 227 224
18 9 10 18 24 29 33 33 35 35 35 43 37 40 21 11 273 260 249 253 253 251 245 246 245 253 259 275 252 231 229 229 229 235 241 235 234 230 230 227 221 226 226
350 352 356 3 5 7 15 25 29 33 31 37 45 58 60 54 44 61 52 38 275 238 230 241 245 241 246 254 270 244 223 217 217 228 229 218 225 223 221 222 228 233 236
324 333 340 344 349 353 357 5 16 25 30 32 38 49 56 63 50 46 52 50 48 44 63 106 105 137 180 185 185 189 199 185 188 205 209 219 227 231 234 237 238 240 243
295 301 310 320 326 333 343 351 358 9 14 19 21 21 23 36 61 69 58 38 26 28 40 60 107 104 108 125 153 181 194 195 216 234 234 236 243 236 240 245 242 242 244